User: anonymous   Login
Location: Unspecified
(0.0000°N, 0.0000°E)
Time: 19:32:45
(UTC+00:00)
Language:

CBERS 2 - Orbit

View from above orbital plane
View from above orbital plane
View from above satellite
View from above satellite

Ground track
Ground track

The orbit data is extracted from the following two-line orbital elements,

1 28057U 03049A   19341.45809401 -.00000009  00000-0  11675-4 0  9991
2 28057  98.4509 282.9148 0001815  53.9734 306.1616 14.35614854845112
Epoch (UTC): 07 December 2019 10:59:39
Eccentricity: 0.0001815
inclination: 98.4509°
perigee height: 772 km
apogee height: 774 km
right ascension of ascending node: 282.9148°
argument of perigee: 53.9734°
revolutions per day: 14.35614854
mean anomaly at epoch: 306.1616°
orbit number at epoch: 84511

The dashed part of the orbit path shows where the satellite is in the earth's shadow,  

DLR